• In Moldova, Republic
  • List of Countries
  • For 7 days
  • Water Temperature
  • Satellite Maps
  • Weather Map
  • Weather Widgets
  • user-avatar
    Login

    Hourly Weather Batina

    Today, 24 June, Saturday

    Time Temperature Precipitation Wind Pressure Humidity
    00:00 +23°C° 0 mm 1 mps 675 mmHg 59%
    01:00 +23°C° 0 mm 1 mps 675 mmHg 59%
    02:00 +22°C° 0 mm 1 mps 675 mmHg 59%
    03:00 +22°C° 0 mm 1 mps 675 mmHg 60%
    04:00 +23°C° 0 mm 1 mps 675 mmHg 55%
    05:00 +23°C° 0 mm 1 mps 675 mmHg 50%
    06:00 +24°C° 0 mm 1 mps 676 mmHg 46%
    07:00 +26°C° 0 mm 2 mps 676 mmHg 41%
    08:00 +27°C° 0 mm 2 mps 677 mmHg 35%
    09:00 +29°C° 0 mm 2 mps 677 mmHg 30%
    10:00 +30°C° 0 mm 3 mps 677 mmHg 28%
    11:00 +31°C° 0 mm 3 mps 677 mmHg 25%
    12:00 +33°C° 0 mm 3 mps 677 mmHg 22%
    13:00 +33°C° 0 mm 3 mps 676 mmHg 22%
    14:00 +34°C° 0 mm 3 mps 676 mmHg 21%
    15:00 +34°C° 0 mm 3 mps 675 mmHg 20%
    16:00 +33°C° 0 mm 3 mps 675 mmHg 23%
    17:00 +31°C° 0 mm 3 mps 675 mmHg 25%
    18:00 +30°C° 0 mm 3 mps 675 mmHg 27%
    19:00 +29°C° 0 mm 2 mps 675 mmHg 31%
    20:00 +27°C° 0 mm 2 mps 675 mmHg 35%
    21:00 +25°C° 0 mm 1 mps 675 mmHg 39%
    22:00 +25°C° 0 mm 1 mps 674 mmHg 41%
    23:00 +24°C° 0 mm 1 mps 674 mmHg 44%

    Tomorrow, 25 June, Sunday

    Time Temperature Precipitation Wind Pressure Humidity
    00:00 +21°C° 0 mm 0 mps 674 mmHg 46%
    01:00 +23°C° 0 mm 1 mps 674 mmHg 46%
    02:00 +23°C° 0 mm 1 mps 673 mmHg 46%
    03:00 +22°C° 0 mm 1 mps 673 mmHg 46%
    04:00 +23°C° 0 mm 1 mps 673 mmHg 42%
    05:00 +24°C° 0 mm 1 mps 673 mmHg 39%
    06:00 +25°C° 0 mm 2 mps 674 mmHg 36%
    07:00 +27°C° 0 mm 2 mps 674 mmHg 32%
    08:00 +29°C° 0 mm 3 mps 675 mmHg 28%
    09:00 +31°C° 0 mm 3 mps 675 mmHg 24%
    10:00 +33°C° 0 mm 3 mps 675 mmHg 22%
    11:00 +34°C° 0 mm 3 mps 675 mmHg 20%
    12:00 +35°C° 0 mm 3 mps 675 mmHg 18%
    13:00 +35°C° 0 mm 3 mps 675 mmHg 17%
    14:00 +35°C° 0 mm 3 mps 674 mmHg 17%
    15:00 +36°C° 0 mm 3 mps 674 mmHg 16%
    16:00 +35°C° 0 mm 3 mps 674 mmHg 17%
    17:00 +34°C° 0 mm 3 mps 673 mmHg 19%
    18:00 +33°C° 0 mm 3 mps 673 mmHg 20%
    19:00 +30°C° 0 mm 2 mps 673 mmHg 23%
    20:00 +28°C° 0 mm 2 mps 673 mmHg 27%
    21:00 +27°C° 0 mm 1 mps 673 mmHg 30%
    22:00 +26°C° 0 mm 1 mps 672 mmHg 32%
    23:00 +25°C° 0 mm 1 mps 672 mmHg 33%

    Day after tomorrow, 26 June, Monday

    Time Temperature Precipitation Wind Pressure Humidity
    00:00 +25°C° 0 mm 1 mps 672 mmHg 34%
    01:00 +25°C° 0 mm 1 mps 672 mmHg 34%
    02:00 +24°C° 0 mm 2 mps 671 mmHg 34%
    03:00 +24°C° 0 mm 2 mps 671 mmHg 34%
    04:00 +25°C° 0 mm 2 mps 671 mmHg 33%
    05:00 +26°C° 0 mm 2 mps 672 mmHg 31%
    06:00 +27°C° 0 mm 2 mps 672 mmHg 30%
    07:00 +29°C° 0 mm 3 mps 673 mmHg 26%
    08:00 +32°C° 0 mm 4 mps 673 mmHg 22%
    09:00 +34°C° 0 mm 4 mps 674 mmHg 18%
    10:00 +35°C° 0 mm 5 mps 674 mmHg 17%
    11:00 +36°C° 0 mm 5 mps 674 mmHg 16%
    12:00 +37°C° 0 mm 5 mps 673 mmHg 14%
    13:00 +39°C° 0 mm 5 mps 673 mmHg 14%
    14:00 +39°C° 0 mm 5 mps 673 mmHg 14%
    15:00 +39°C° 0 mm 5 mps 672 mmHg 13%
    16:00 +37°C° 0 mm 4 mps 672 mmHg 14%
    17:00 +36°C° 0 mm 3 mps 672 mmHg 16%
    18:00 +35°C° 0 mm 3 mps 672 mmHg 17%
    19:00 +32°C° 0.1 mm 2 mps 672 mmHg 20%
    20:00 +31°C° 0.1 mm 2 mps 672 mmHg 23%
    21:00 +29°C° 0.1 mm 1 mps 672 mmHg 26%
    22:00 +28°C° 0 mm 1 mps 672 mmHg 27%
    23:00 +28°C° 0 mm 1 mps 671 mmHg 28%

    27 June, Tuesday

    Time Temperature Precipitation Wind Pressure Humidity
    00:00 +27°C° 0 mm 2 mps 671 mmHg 29%
    01:00 +26°C° 0 mm 1 mps 671 mmHg 30%
    02:00 +26°C° 0 mm 1 mps 671 mmHg 31%
    03:00 +25°C° 0 mm 1 mps 670 mmHg 32%
    04:00 +26°C° 0 mm 1 mps 671 mmHg 30%
    05:00 +28°C° 0 mm 1 mps 671 mmHg 28%
    06:00 +29°C° 0 mm 1 mps 672 mmHg 27%
    07:00 +31°C° 0 mm 1 mps 673 mmHg 23%
    08:00 +33°C° 0 mm 1 mps 673 mmHg 20%
    09:00 +35°C° 0 mm 1 mps 674 mmHg 16%
    10:00 +36°C° 0 mm 1 mps 674 mmHg 15%
    11:00 +37°C° 0 mm 1 mps 674 mmHg 14%
    12:00 +39°C° 0 mm 2 mps 674 mmHg 13%
    13:00 +39°C° 0 mm 2 mps 673 mmHg 13%
    14:00 +39°C° 0 mm 2 mps 673 mmHg 13%
    15:00 +39°C° 0 mm 2 mps 673 mmHg 13%
    16:00 +38°C° 0.2 mm 2 mps 672 mmHg 15%
    17:00 +37°C° 0.2 mm 2 mps 672 mmHg 17%
    18:00 +36°C° 0.2 mm 2 mps 672 mmHg 19%
    19:00 +33°C° 0.1 mm 1 mps 672 mmHg 23%
    20:00 +32°C° 0.1 mm 1 mps 672 mmHg 26%
    21:00 +30°C° 0.1 mm 1 mps 672 mmHg 29%
    22:00 +29°C° 0.1 mm 2 mps 672 mmHg 31%
    23:00 +29°C° 0.1 mm 2 mps 671 mmHg 33%

    28 June, Wednesday

    Time Temperature Precipitation Wind Pressure Humidity
    00:00 +28°C° 0.1 mm 2 mps 671 mmHg 35%
    01:00 +27°C° 0 mm 2 mps 671 mmHg 37%
    02:00 +27°C° 0 mm 2 mps 670 mmHg 39%
    03:00 +26°C° 0 mm 3 mps 670 mmHg 41%
    04:00 +27°C° 0.1 mm 2 mps 670 mmHg 39%
    05:00 +27°C° 0.1 mm 2 mps 670 mmHg 37%
    06:00 +28°C° 0.1 mm 2 mps 671 mmHg 36%
    07:00 +30°C° 0 mm 3 mps 671 mmHg 30%
    08:00 +34°C° 0 mm 3 mps 672 mmHg 24%
    09:00 +36°C° 0 mm 4 mps 672 mmHg 18%
    10:00 +37°C° 0 mm 5 mps 672 mmHg 16%
    11:00 +39°C° 0 mm 6 mps 672 mmHg 14%
    12:00 +41°C° 0 mm 7 mps 672 mmHg 12%
    13:00 +40°C° 0 mm 7 mps 672 mmHg 12%
    14:00 +40°C° 0 mm 7 mps 671 mmHg 12%
    15:00 +40°C° 0 mm 7 mps 671 mmHg 13%
    16:00 +38°C° 0 mm 7 mps 671 mmHg 15%
    17:00 +36°C° 0 mm 6 mps 671 mmHg 18%
    18:00 +35°C° 0 mm 6 mps 670 mmHg 21%
    19:00 +33°C° 0.1 mm 5 mps 670 mmHg 25%
    20:00 +32°C° 0.1 mm 4 mps 670 mmHg 30%
    21:00 +29°C° 0.1 mm 3 mps 670 mmHg 35%
    22:00 +28°C° 0 mm 2 mps 670 mmHg 38%
    23:00 +26°C° 0 mm 2 mps 670 mmHg 42%

    29 June, Thursday

    Time Temperature Precipitation Wind Pressure Humidity
    00:00 +25°C° 0 mm 2 mps 669 mmHg 45%
    01:00 +24°C° 0 mm 2 mps 669 mmHg 48%
    02:00 +23°C° 0 mm 1 mps 669 mmHg 51%
    03:00 +23°C° 0 mm 1 mps 669 mmHg 54%
    04:00 +24°C° 0 mm 1 mps 669 mmHg 50%
    05:00 +24°C° 0 mm 1 mps 669 mmHg 47%
    06:00 +25°C° 0 mm 1 mps 670 mmHg 44%
    07:00 +28°C° 0 mm 2 mps 671 mmHg 36%
    08:00 +30°C° 0 mm 2 mps 671 mmHg 28%
    09:00 +34°C° 0 mm 3 mps 672 mmHg 20%
    10:00 +35°C° 0 mm 4 mps 672 mmHg 17%
    11:00 +36°C° 0 mm 5 mps 672 mmHg 14%
    12:00 +38°C° 0 mm 6 mps 672 mmHg 12%
    13:00 +38°C° 0 mm 7 mps 672 mmHg 12%
    14:00 +38°C° 0 mm 7 mps 672 mmHg 12%
    15:00 +38°C° 0 mm 7 mps 672 mmHg 12%
    16:00 +36°C° 0 mm 5 mps 672 mmHg 14%
    17:00 +35°C° 0 mm 4 mps 672 mmHg 17%
    18:00 +33°C° 0 mm 3 mps 672 mmHg 19%
    19:00 +30°C° 0 mm 3 mps 672 mmHg 28%
    20:00 +28°C° 0 mm 3 mps 672 mmHg 37%
    21:00 +25°C° 0 mm 2 mps 672 mmHg 45%
    22:00 +24°C° 0 mm 3 mps 671 mmHg 51%
    23:00 +22°C° 0 mm 3 mps 671 mmHg 58%
    Show more